User: anonymous   Login
Location: ???????
(55.4362°N, 38.1183°E)
Time: 22:33:50
(UTC+00:00)
Language:

Meteor 2-1 Rocket - Orbit

View from above orbital plane
View from above orbital plane
View from above satellite
View from above satellite

Ground track
Ground track

The orbit data is extracted from the following two-line orbital elements,

1 08027U 75064B   21266.74401304  .00000034  00000-0  12653-4 0  9997
2 08027  81.3011 353.5176 0053710 182.7831 177.3049 14.07371376371561
Epoch (UTC): 23 September 2021 17:51:22
Eccentricity: 0.0053710
inclination: 81.3011°
perigee height: 829 km
apogee height: 907 km
right ascension of ascending node: 353.5176°
argument of perigee: 182.7831°
revolutions per day: 14.07371376
mean anomaly at epoch: 177.3049°
orbit number at epoch: 37156

The dashed part of the orbit path shows where the satellite is in the earth's shadow,  

DLR